Baudette, MN

8:34 AM CDT on September 23, 2017 (GMT -0500)
Baudette International

Weather History for KBDE - October, 2011

Change the Weather History Date:

Friday, October 28, 2011

  Actual Average Record
Temperature  
Mean Temperature 38 °F -  
Max Temperature 44 °F 49 °F 68 °F (1944)
Min Temperature 30 °F 29 °F 6 °F (1933)
Degree Days  
Heating Degree Days 27    
Moisture  
Dew Point 33 °F    
Average Humidity 85    
Maximum Humidity 93    
Minimum Humidity 67    
Precipitation  
Precipitation 0.09 in - - ()
Sea Level Pressure  
Sea Level Pressure 29.96 in    
Wind  
Wind Speed 5 mph (WSW)    
Max Wind Speed 12 mph    
Max Gust Speed 26 mph    
Visibility 9 miles    
Events Rain    
Averages and records for this station are not official NWS values.
T = Trace of Precipitation, MM = Missing Value Source: NWS Daily Summary

Daily Weather History Graph

Daily Weather History Graph

Search for Another Location

Airport or City:

Trip Planner

Search our weather history database for the weather conditions in past years. The results will help you decide how hot, cold, wet, or windy it might be!

Date:

Astronomy

Oct. 28, 2011 Rise Set
Actual Time 7:58 AM CDT 6:05 PM CDT
Civil Twilight 7:25 AM CDT 6:37 PM CDT
Nautical Twilight 6:48 AM CDT 7:14 PM CDT
Astronomical Twilight 6:12 AM CDT 7:51 PM CDT
Moon 10:30 AM CDT (10/28) 7:13 PM CDT (10/28)
Length of Visible Light 11h 12m
Length of Day
10h 06m
Waxing Crescent, 5% of the Moon is Illuminated
Oct 28
Waxing Crescent
Nov 2
First Quarter
Nov 10
Full
Nov 18
Last Quarter
Nov 25
New

Hourly Weather History & Observations

Time (CDT) Temp. Windchill Dew Point Humidity Pressure Visibility Wind Dir Wind Speed Gust Speed Precip Events Conditions
12:53 AM 32.0 °F 28.7 °F 27.0 °F 82% 29.99 in 10.0 mi Variable 3.5 mph - N/A   Mostly Cloudy
1:53 AM 32.0 °F 27.5 °F 27.0 °F 82% 29.98 in 10.0 mi South 4.6 mph - N/A   Overcast
2:40 AM 33.8 °F 29.6 °F 28.4 °F 81% 29.92 in 10.0 mi SSE 4.6 mph - 0.00 in Rain Light Rain
2:53 AM 34.0 °F 31.0 °F 28.9 °F 82% 29.96 in 10.0 mi SSE 3.5 mph - 0.00 in   Overcast
3:29 AM 33.8 °F 30.8 °F 30.2 °F 87% 29.91 in 9.0 mi SSE 3.5 mph - 0.01 in Rain Light Rain
3:53 AM 35.1 °F 31.0 °F 32.0 °F 89% 29.94 in 10.0 mi SSE 4.6 mph - 0.02 in Rain Light Rain
4:53 AM 36.0 °F 31.1 °F 33.1 °F 89% 29.93 in 10.0 mi SSE 5.8 mph - 0.01 in Rain Light Rain
5:23 AM 35.6 °F 29.9 °F 33.8 °F 93% 29.88 in 10.0 mi South 6.9 mph - 0.00 in Rain Light Rain
5:53 AM 37.0 °F 31.6 °F 35.1 °F 93% 29.92 in 10.0 mi SSW 6.9 mph - 0.00 in   Overcast
6:53 AM 37.0 °F 32.4 °F 35.1 °F 93% 29.92 in 10.0 mi WSW 5.8 mph - N/A   Overcast
7:53 AM 36.0 °F 31.1 °F 33.1 °F 89% 29.93 in 10.0 mi West 5.8 mph - N/A   Overcast
8:19 AM 35.6 °F - 33.8 °F 93% 29.89 in 9.0 mi Calm Calm - N/A   Overcast
8:53 AM 36.0 °F 31.1 °F 34.0 °F 93% 29.94 in 7.0 mi Variable 5.8 mph - N/A   Overcast
9:53 AM 37.0 °F 31.0 °F 34.0 °F 89% 29.95 in 8.0 mi WNW 8.1 mph - N/A   Overcast
10:53 AM 37.9 °F 32.7 °F 35.1 °F 89% 29.96 in 8.0 mi Variable 6.9 mph - N/A   Overcast
11:53 AM 41.0 °F 37.1 °F 37.0 °F 86% 29.97 in 10.0 mi Variable 5.8 mph - N/A   Overcast
12:13 PM 41.0 °F 35.8 °F 35.6 °F 81% 29.93 in 10.0 mi WNW 8.1 mph - N/A   Overcast
12:50 PM 39.2 °F 35.0 °F 35.6 °F 87% 29.94 in 9.0 mi West 5.8 mph - N/A   Overcast
12:53 PM 39.9 °F 35.8 °F 36.0 °F 86% 29.99 in 8.0 mi Variable 5.8 mph - N/A   Overcast
1:53 PM 37.9 °F 33.5 °F 36.0 °F 93% 29.99 in 6.0 mi Variable 5.8 mph - 0.01 in   Overcast
2:41 PM 41.0 °F 37.1 °F 35.6 °F 81% 29.95 in 10.0 mi Variable 5.8 mph - N/A   Mostly Cloudy
2:53 PM 42.1 °F 37.1 °F 36.0 °F 79% 29.99 in 10.0 mi NW 8.1 mph - N/A   Overcast
3:07 PM 42.8 °F 37.5 °F 35.6 °F 76% 29.94 in 10.0 mi NW 9.2 mph - N/A   Overcast
3:53 PM 44.1 °F 38.6 °F 34.0 °F 68% 29.99 in 10.0 mi NW 10.4 mph - N/A   Mostly Cloudy
4:53 PM 42.1 °F 37.7 °F 32.0 °F 67% 29.99 in 10.0 mi NNW 6.9 mph - N/A   Clear
5:53 PM 41.0 °F 34.3 °F 33.1 °F 73% 30.00 in 10.0 mi NNW 11.5 mph 26.5 mph 0.00 in Rain Light Rain
6:53 PM 39.9 °F 33.9 °F 32.0 °F 73% 30.01 in 7.0 mi West 9.2 mph 23.0 mph 0.00 in Rain Light Rain
7:35 PM 37.4 °F 29.8 °F 33.8 °F 87% 29.99 in 4.0 mi NNW 11.5 mph 21.9 mph 0.04 in Rain Heavy Rain
7:53 PM 37.0 °F 34.5 °F 33.1 °F 86% 30.01 in 10.0 mi WSW 3.5 mph - 0.05 in   Mostly Cloudy
8:53 PM 33.1 °F 30.0 °F 30.9 °F 92% 30.01 in 10.0 mi SSW 3.5 mph - N/A   Scattered Clouds
9:53 PM 33.1 °F - 30.9 °F 92% 30.01 in 10.0 mi Calm Calm - N/A   Partly Cloudy
10:53 PM 32.0 °F 28.7 °F 30.0 °F 92% 30.01 in 9.0 mi SW 3.5 mph - N/A   Scattered Clouds
11:53 PM 30.9 °F - 28.9 °F 92% 30.01 in 10.0 mi Calm Calm - N/A   Clear